User: anonymous   Login
Location: Drocourt
(49.0571°N, 1.7669°E)
Time: 12:34:05
(UTC+00:00)
Language:

USA 215 - Orbit

View from above orbital plane
View from above orbital plane
View from above satellite
View from above satellite

Ground track
Ground track

The orbit data is extracted from the following two-line orbital elements,

1 37162U 10046A   24101.02998698 0.00000030  00000-0  53683-4 0    04
2 37162 123.0049 339.3004 0005041 146.1995 213.8005 13.41475813    03
Epoch (UTC): 10 April 2024 00:43:10
Eccentricity: 0.0005041
inclination: 123.0049°
perigee height: 1100 km
apogee height: 1107 km
right ascension of ascending node: 339.3004°
argument of perigee: 146.1995°
revolutions per day: 13.41475813
mean anomaly at epoch: 213.8005°
orbit number at epoch: 0

The dashed part of the orbit path shows where the satellite is in the earth's shadow,  

DLR